Regional Weather Roundup
Issued by NWS

Home | Current Version | Previous Version | Text Only | Print | Product List | Glossary On
Versions: 1 2 3 4 5 6 7 8 9 10 11 12 13 14 15 16 17 18 19 20 21 22 23 24 25 26 27
000
ASUS45 KREV 251110
RWRNV
NEVADA REGIONAL WEATHER ROUNDUP
NATIONAL WEATHER SERVICE RENO NV
400 AM PDT WED MAY 25 2016

NOTE: "FAIR" INDICATES FEW OR NO CLOUDS BELOW 12,000 FEET WITH NO
SIGNIFICANT WEATHER AND/OR OBSTRUCTIONS TO VISIBILITY.

NVZ001-003-004-251200-
WESTERN NEVADA

CITY           SKY/WX    TMP DP  RH WIND       PRES   REMARKS
RENO           MOCLDY    49  38  65 S3        30.05S
CARSON CITY    CLOUDY    45  37  76 CALM      30.07S
MINDEN         MOCLDY    37  37 100 SE5       30.07R
SLIDE MTN        N/A     32  32 100 VRB14       N/A
FALLON         CLOUDY    48  41  76 S6        30.01R
LOVELOCK       MOCLDY    51  41  68 E3        30.00R
HAWTHORNE      CLOUDY    50  45  81 SE6       30.03F
$$

NVZ002-CAZ072-073-251200-
NORTHERN AND CENTRAL SIERRA

CITY           SKY/WX    TMP DP  RH WIND       PRES   REMARKS
S. LAKE TAHOE  MOCLDY    32  31  96 S6        30.08S
TRUCKEE        CLOUDY    36  36 100 CALM      30.10R
SQUAW VLY 8000 NOT AVBL
SUSANVILLE     MOCLDY    46  43  87 CALM      30.06R
BLUE CANYON    PTCLDY    43  35  73 N5        30.08S
MAMMOTH LAKES  DRIZZLE   39  36  89 W3        30.08S
BRIDGEPORT     LGT RAIN  37  33  85 CALM      30.06S
$$

NVZ030-031-036-251200-
NORTHERN NEVADA

CITY           SKY/WX    TMP DP  RH WIND       PRES   REMARKS
ELKO           CLOUDY    44  41  89 CALM      30.02R
WINNEMUCCA     CLOUDY    36  33  89 S3        30.00S
WENDOVER       MOCLDY    50  36  57 CALM      29.98R
$$

NVZ035-037-251200-
CENTRAL NEVADA

CITY           SKY/WX    TMP DP  RH WIND       PRES   REMARKS
ELY            MOCLDY    31  30  96 S8        30.05R
EUREKA           N/A     37  32  82 S5        30.04R
$$

NVZ013-014-251200-
SOUTH CENTRAL NEVADA

CITY           SKY/WX    TMP DP  RH WIND       PRES   REMARKS
TONOPAH        MOCLDY    44  38  79 N9        30.03F
$$

NVZ017-020-022-251200-
SOUTHERN NEVADA

CITY           SKY/WX    TMP DP  RH WIND       PRES   REMARKS
LAS VEGAS      PTCLDY    63  37  38 S7        29.87S
N. LAS VEGAS   CLEAR     64  33  31 SE6       29.90S
NELLIS AFB     CLEAR     63  37  37 S6        29.90R
HENDERSON      CLEAR     60  37  42 S10       29.93S
MERCURY        CLEAR     52  34  50 CALM      29.94S
$$




USA.gov is the U.S. government's official web portal to all federal, state and local government web resources and services.